#datint,netname,site,siteID,timestamp,IntT,BattV,AirT2,AirT,AirT_Avg,AirT_Max,AirT_Min,RH_Avg,RH_Max,RH_Min,EA_Avg,Td_Avg,Td_Max,Td_Min,WindS_Smp,WindS_Avg,WindD_Avg,WindD_SD,WindS_Max,ETo,ETr,SoilT4,SoilT8,SoilVWC8,SolarW_Avg,wetstate_Avg,wetT_Avg,Precip_accum,Precip_WPG,Precip_TB
15min,AgWx,beryljct,423,05MAR2018:00:00:00,23.4,12.75,22.9,22.8,23.4,23.9,22.7,86,86,86,0.360,19.8,20.3,19.2,3.464,3.1,317,8.9,4.1,-0.00007,-0.00009,33.9,36.4,21,0,0,35.8,12.51,0.00,0.00
15min,AgWx,beryljct,423,05MAR2018:00:15:00,23.0,12.76,23.3,23.4,23.3,23.5,22.9,86,86,86,0.368,19.7,19.9,19.3,1.863,2.1,320,11,3.6,-0.00010,-0.00012,33.7,36.3,21,0,0,35.6,12.51,0.00,0.00
15min,AgWx,beryljct,423,05MAR2018:00:30:00,22.6,12.61,23.9,23.8,23.6,23.8,23.3,86,86,86,0.375,20.0,20.2,19.7,2.477,2.1,312,13,3.7,-0.00010,-0.00012,33.8,36.3,21,0,0,35.6,12.51,0.00,0.00
15min,AgWx,beryljct,423,05MAR2018:00:45:00,22.4,12.73,24.9,25.1,24.3,25.1,23.8,86,86,86,0.395,20.7,21.5,20.3,2.105,2.5,353,23,3.5,-0.00009,-0.00011,33.6,36.3,21,0,0,35.6,12.51,0.00,0.00
15min,AgWx,beryljct,423,05MAR2018:01:00:00,22.4,12.72,23.8,24.0,25.5,25.9,24.0,85,86,83,0.369,21.6,22.2,19.9,3.946,2.5,21,34,4.2,-0.00010,-0.00011,33.6,36.3,21,0,0,35.5,12.51,0.00,0.00
15min,AgWx,beryljct,423,05MAR2018:01:15:00,22.1,12.71,21.9,22.3,22.9,24.0,22.2,87,87,84,0.355,19.5,19.9,18.8,4.056,1.9,98,55,4.5,-0.00011,-0.00014,33.5,36.3,21,0,0,35.4,12.51,0.00,0.00
15min,AgWx,beryljct,423,05MAR2018:01:30:00,21.7,12.7,22.4,22.4,22.3,22.7,21.9,87,87,86,0.354,18.9,19.2,18.5,0,1.6,243,26,4.7,-0.00012,-0.00015,33.5,36.2,21,0,0,35.6,12.51,0.00,0.00
15min,AgWx,beryljct,423,05MAR2018:01:45:00,21.2,12.55,21.5,21.7,22.3,23.1,21.6,86,87,86,0.345,18.9,19.6,18.2,0.373,0.1,263,6.2,0.7,-0.00019,-0.00029,33.5,36.2,21,0,0,35.5,12.51,0.00,0.00
15min,AgWx,beryljct,423,05MAR2018:02:00:00,20.5,12.68,20.4,20.6,21.1,21.7,20.6,87,87,87,0.331,17.8,18.3,17.3,0,0.1,267,0.0,0.6,-0.00018,-0.00029,33.3,36.2,21,0,0,35.6,12.51,0.00,0.00
15min,AgWx,beryljct,423,05MAR2018:02:15:00,19.9,12.67,20.7,20.9,21.1,21.5,20.7,87,87,86,0.334,17.8,18.1,17.4,0.855,1.5,189,2.5,2.5,-0.00012,-0.00015,33.4,36.1,21,0,0,35.5,12.51,0.00,0.00
15min,AgWx,beryljct,423,05MAR2018:02:30:00,19.4,12.67,19.7,20.1,20.5,20.9,19.9,87,87,87,0.324,17.2,17.6,16.7,0,0.3,193,0.2,1.1,-0.00017,-0.00025,33.3,36.1,21,0,0,35.7,12.51,0.00,0.00
15min,AgWx,beryljct,423,05MAR2018:02:45:00,18.8,12.65,20.0,20.4,20.1,20.4,19.7,87,87,87,0.328,16.8,17.1,16.5,0.636,0.3,211,33,1.3,-0.00016,-0.00025,33.1,32.0,0,0,0,35.5,12.51,0.00,0.00
15min,AgWx,beryljct,423,05MAR2018:03:00:00,18.5,12.52,20.2,20.4,20.3,20.6,19.7,87,87,87,0.328,17.0,17.3,16.4,0,0.1,302,0.8,0.7,-0.00018,-0.00028,33.2,36.0,21,0,0,35.7,12.51,0.00,0.00
15min,AgWx,beryljct,423,05MAR2018:03:15:00,18.3,12.61,19.1,19.4,19.9,20.6,19.2,87,87,87,0.315,16.6,17.2,16.0,2.981,1.7,340,21,3.5,-0.00011,-0.00014,33.1,36.0,21,0,0,35.4,12.51,0.00,0.00
15min,AgWx,beryljct,423,05MAR2018:03:30:00,18.3,12.62,17.5,17.8,18.4,19.3,17.8,88,88,87,0.297,15.3,16.1,14.7,1.754,3.0,331,13,3.6,-0.00007,-0.00008,33.0,36.0,21,0,0,35.6,12.51,0.00,0.00
15min,AgWx,beryljct,423,05MAR2018:03:45:00,17.9,12.61,16.6,16.8,17.3,17.9,16.6,88,88,88,0.285,14.3,14.9,13.7,2.587,2.8,323,14,4.4,-0.00007,-0.00008,32.9,36.0,21,0,0,35.4,12.51,0.00,0.00
15min,AgWx,beryljct,423,05MAR2018:04:00:00,17.6,12.61,17.0,17.2,16.8,17.2,16.5,88,88,88,0.290,13.9,14.3,13.6,4.954,3.7,340,22,5.0,-0.00006,-0.00006,32.9,36.0,21,0,0,35.6,12.51,0.00,0.00
15min,AgWx,beryljct,423,05MAR2018:04:15:00,17.4,12.6,16.6,16.8,17.1,17.5,16.5,88,89,88,0.286,14.2,14.6,13.6,4.691,4.8,341,14,5.7,-0.00004,-0.00004,32.9,35.9,21,0,0,35.7,12.51,0.00,0.00
15min,AgWx,beryljct,423,05MAR2018:04:30:00,17.3,12.46,18.5,18.1,17.3,18.3,16.5,88,89,88,0.301,14.4,15.3,13.7,4.889,4.3,318,18,5.3,-0.00005,-0.00005,32.8,35.9,21,0,0,35.6,12.51,0.00,0.00
15min,AgWx,beryljct,423,05MAR2018:04:45:00,17.2,12.6,18.3,18.4,18.6,19.0,18.1,88,88,88,0.306,15.6,16.0,15.1,2.126,3.0,238,67,6.4,-0.00007,-0.00008,32.8,35.9,21,0,0,35.7,12.51,0.00,0.00
15min,AgWx,beryljct,423,05MAR2018:05:00:00,16.9,12.6,17.8,18.3,18.3,18.6,18.0,88,88,88,0.303,15.3,15.6,15.0,1.337,0.5,174,4.8,2.1,-0.00015,-0.00021,32.7,35.8,21,0,0,35.8,12.51,0.00,0.00
15min,AgWx,beryljct,423,05MAR2018:05:15:00,16.7,12.6,17.6,17.9,18.0,18.4,17.5,88,88,88,0.298,15.0,15.3,14.5,2.872,1.6,93,61,3.2,-0.00010,-0.00013,32.7,35.8,21,0,0,35.7,12.51,0.00,0.00
15min,AgWx,beryljct,423,05MAR2018:05:30:00,16.4,12.61,17.1,17.5,17.5,17.9,17.2,88,88,88,0.294,14.5,14.9,14.2,1.578,1.6,164,5.4,4.1,-0.00010,-0.00013,32.6,35.8,21,0,0,35.7,12.51,0.00,0.00
15min,AgWx,beryljct,423,05MAR2018:05:45:00,16.2,12.6,17.1,17.3,17.3,17.5,17.0,88,88,88,0.291,14.4,14.6,14.1,0,1.3,177,9.6,3.6,-0.00011,-0.00014,32.5,35.8,21,0,0,35.6,12.51,0.00,0.00
15min,AgWx,beryljct,423,05MAR2018:06:00:00,15.9,12.46,17.2,17.5,17.6,17.9,17.2,88,88,88,0.294,14.6,14.9,14.3,2.696,1.5,189,9.4,2.8,-0.00011,-0.00014,32.4,35.7,21,0,0,35.7,12.51,0.00,0.00
15min,AgWx,beryljct,423,05MAR2018:06:15:00,15.8,12.6,17.5,17.8,17.8,18.1,17.3,88,88,88,0.297,14.8,15.2,14.4,0.46,2.6,180,7.1,4.0,-0.00008,-0.00009,32.3,35.7,21,0,0,35.7,12.51,0.00,0.00
15min,AgWx,beryljct,423,05MAR2018:06:30:00,15.6,12.6,16.8,17.1,17.5,17.8,17.1,88,88,88,0.289,14.6,14.9,14.2,0,1.0,184,7.8,1.9,0.00002,0.00003,32.3,35.7,21,0,0,35.5,12.51,0.00,0.00
15min,AgWx,beryljct,423,05MAR2018:06:45:00,15.3,12.6,16.5,16.9,17.0,17.3,16.7,88,89,88,0.286,14.2,14.4,13.8,1.14,0.9,161,20,2.0,0.00002,0.00003,32.2,35.6,21,0,0,35.6,12.51,0.00,0.00
15min,AgWx,beryljct,423,05MAR2018:07:00:00,14.9,12.61,16.0,16.4,16.6,16.9,16.2,89,89,88,0.281,13.8,14.1,13.4,0,0.5,139,0.2,1.1,0.00002,0.00002,32.2,35.7,21,3,0,35.4,12.51,0.00,0.00
15min,AgWx,beryljct,423,05MAR2018:07:15:00,14.8,12.61,14.3,14.5,15.0,16.6,14.2,89,89,88,0.261,12.4,13.8,11.6,3.332,2.7,321,32,3.9,0.00007,0.00010,32.1,35.6,21,17,0,35.3,12.51,0.00,0.00
15min,AgWx,beryljct,423,05MAR2018:07:30:00,15.8,12.5,14.9,15.3,15.2,15.7,14.4,89,89,89,0.270,12.5,13.0,11.8,3.464,3.2,332,11,4.1,0.00019,0.00023,32.0,35.6,21,73,0,35.8,12.51,0.00,0.00
15min,AgWx,beryljct,423,05MAR2018:07:45:00,17.5,12.75,17.2,17.6,15.9,17.6,15.1,89,89,88,0.295,13.2,14.7,12.4,3.047,3.5,339,12,4.7,0.00027,0.00031,32.1,35.6,21,113,0,35.8,12.51,0.00,0.00
15min,AgWx,beryljct,423,05MAR2018:08:00:00,20.1,12.93,20.8,21.8,19.8,21.8,17.6,88,88,86,0.345,16.7,18.3,14.7,6.138,4.0,314,20,6.1,0.00039,0.00045,32.0,35.6,21,153,0,35.6,12.51,0.00,0.00
15min,AgWx,beryljct,423,05MAR2018:08:15:00,22.8,13.2,21.6,22.8,22.2,22.9,21.7,83,86,81,0.338,17.9,18.3,17.5,5.13,5.3,307,17,6.5,0.00053,0.00062,31.9,35.5,21,195,0,35.7,12.51,0.00,0.00
15min,AgWx,beryljct,423,05MAR2018:08:30:00,25.4,13.61,22.0,22.6,22.7,23.2,22.1,82,83,81,0.341,17.9,18.3,17.3,4.538,4.9,320,17,6.5,0.00065,0.00076,31.8,35.5,21,239,0,36.0,12.51,0.00,0.00
15min,AgWx,beryljct,423,05MAR2018:08:45:00,27.9,14.03,22.7,23.0,22.8,23.4,22.3,81,82,79,0.339,17.8,18.7,16.9,4.538,4.3,339,22,6.2,0.00077,0.00088,31.8,35.5,21,281,0,35.7,12.52,0.00,0.00
15min,AgWx,beryljct,423,05MAR2018:09:00:00,30.1,14.29,23.1,23.3,23.1,23.6,22.5,78,81,76,0.328,17.3,18.0,16.6,4.121,3.1,0.2,22,5.3,0.00093,0.00104,31.7,35.4,21,326,0,35.4,12.51,0.00,0.00
15min,AgWx,beryljct,423,05MAR2018:09:15:00,32.0,14.6,25.0,23.9,23.4,23.9,23.0,77,77,76,0.335,17.1,17.8,16.6,3.047,4.0,27,15,6.1,0.00105,0.00120,31.8,35.4,22,375,0,35.7,12.52,0.00,0.00
15min,AgWx,beryljct,423,05MAR2018:09:30:00,33.6,14.9,24.8,24.8,24.3,24.8,23.9,75,77,73,0.336,17.5,18.0,17.0,3.442,3.9,11,17,6.0,0.00123,0.00139,31.7,35.4,21,430,0,35.6,12.52,0.00,0.00
15min,AgWx,beryljct,423,05MAR2018:09:45:00,34.9,14.87,25.6,25.7,25.1,25.8,24.8,73,76,71,0.342,17.8,18.9,17.1,3.551,4.5,22,15,6.1,0.00139,0.00158,31.7,35.4,21,481,0,35.7,12.51,0.00,0.00
15min,AgWx,beryljct,423,05MAR2018:10:00:00,36.4,14.85,26.2,26.2,26.0,26.6,25.4,72,75,71,0.344,18.3,19.2,17.7,3.464,3.8,25,19,5.7,0.00158,0.00177,31.6,35.3,21,527,0,38.0,12.52,0.00,0.00
15min,AgWx,beryljct,423,05MAR2018:10:15:00,38.0,14.78,28.2,27.7,27.0,27.8,26.3,71,73,69,0.365,18.9,20.1,17.9,5.371,3.6,33,21,8.0,0.00176,0.00196,31.7,35.3,21,566,0,40.0,12.52,0.00,0.00
15min,AgWx,beryljct,423,05MAR2018:10:30:00,39.6,14.79,28.5,28.6,28.0,29.0,27.4,71,74,69,0.367,19.9,21.1,18.8,6.116,4.2,25,23,7.0,0.00188,0.00211,31.6,35.3,21,603,0,41.4,12.52,0.00,0.00
15min,AgWx,beryljct,423,05MAR2018:10:45:00,40.6,14.73,30.2,29.7,29.0,30.3,28.2,67,70,64,0.363,19.4,21.7,18.4,5.108,5.3,22,18,8.1,0.00200,0.00228,31.6,35.2,21,637,0,41.6,12.52,0.00,0.00
15min,AgWx,beryljct,423,05MAR2018:11:00:00,41.6,14.74,30.8,30.7,30.0,30.7,29.3,64,67,61,0.361,19.2,21.2,18.0,3.749,4.8,23,21,9.4,0.00219,0.00249,31.5,35.2,22,667,0,43.2,12.51,0.00,0.00
15min,AgWx,beryljct,423,05MAR2018:11:15:00,42.5,14.74,31.4,31.2,31.0,31.7,30.6,61,65,57,0.335,19.0,20.6,17.6,6.599,5.5,20,27,10.3,0.00231,0.00266,31.6,35.2,21,694,0,44.4,12.52,0.00,0.00
15min,AgWx,beryljct,423,05MAR2018:11:30:00,43.0,14.68,32.1,32.0,31.8,32.9,30.9,57,60,54,0.342,18.4,20.4,17.1,5.415,5.4,33,19,8.7,0.00246,0.00283,31.5,35.1,21,719,0,45.0,12.51,0.00,0.00
15min,AgWx,beryljct,423,05MAR2018:11:45:00,43.3,14.64,33.0,32.9,32.6,33.3,32.1,54,58,50,0.345,17.8,19.7,15.9,9.6,6.5,36,16,10.5,0.00255,0.00299,31.6,35.1,21,740,0,45.5,12.51,0.00,0.00
15min,AgWx,beryljct,423,05MAR2018:12:00:00,43.4,14.64,33.6,33.7,33.4,34.2,32.8,51,57,47,0.321,17.2,19.7,15.2,8.46,8.2,20,19,13.6,0.00260,0.00312,31.6,35.1,22,756,0,44.9,12.51,0.00,0.00
15min,AgWx,beryljct,423,05MAR2018:12:15:00,43.3,14.23,34.7,34.6,34.4,35.1,33.7,51,58,45,0.347,18.3,21.4,14.9,6.949,8.1,33,15,13.0,0.00270,0.00323,31.6,35.1,22,768,0,45.7,12.51,0.00,0.00
15min,AgWx,beryljct,423,05MAR2018:12:30:00,43.0,14.24,35.4,35.0,34.9,35.7,34.1,46,54,42,0.304,16.3,20.2,13.8,9.47,9.5,31,15,13.9,0.00278,0.00340,31.6,35.1,21,777,0,45.7,12.51,0.00,0.00
15min,AgWx,beryljct,423,05MAR2018:12:45:00,42.6,14.23,36.2,36.2,35.6,36.9,34.7,45,56,37,0.335,16.3,22.6,11.4,13.11,9.4,46,16,14.7,0.00286,0.00350,31.6,35.0,21,783,0,45.9,12.51,0.00,0.00
15min,AgWx,beryljct,423,05MAR2018:13:00:00,42.4,14.21,35.4,35.5,35.9,36.5,35.2,42,49,35,0.266,14.8,18.6,11.3,11.42,9.8,29,19,13.2,0.00290,0.00360,31.7,35.0,22,782,0,46.0,12.51,0.00,0.00
15min,AgWx,beryljct,423,05MAR2018:13:15:00,42.2,14.23,36.1,36.3,35.9,36.5,35.2,39,45,33,0.286,13.5,17.3,8.8,10.96,9.6,28,15,15.1,0.00287,0.00358,31.9,35.0,21,763,0,46.0,12.51,0.00,0.00
15min,AgWx,beryljct,423,05MAR2018:13:30:00,42.8,14.22,36.4,36.6,36.9,38.0,36.2,43,49,37,0.287,16.5,19.5,13.1,12.3,8.9,40,15,14.6,0.00290,0.00356,32.2,35.0,21,759,0,47.0,12.51,0.00,0.00
15min,AgWx,beryljct,423,05MAR2018:13:45:00,43.7,14.19,37.3,36.9,37.2,38.2,36.3,43,49,38,0.289,16.6,20.5,13.6,4.494,9.0,41,15,14.7,0.00292,0.00361,32.7,35.0,22,760,0,46.6,12.51,0.00,0.00
15min,AgWx,beryljct,423,05MAR2018:14:00:00,44.6,14.14,38.8,39.1,38.2,39.4,36.9,41,48,36,0.294,16.7,20.5,13.8,12.71,9.5,44,19,14.8,0.00294,0.00366,33.3,35.0,21,741,0,47.1,12.51,0.00,0.00
15min,AgWx,beryljct,423,05MAR2018:14:15:00,45.2,14.15,39.2,38.9,38.9,40.3,38.2,37,45,29,0.289,14.8,19.9,8.8,10.54,10.3,49,14,16.3,0.00296,0.00376,33.9,35.0,21,720,0,46.8,12.51,0.00,0.00
15min,AgWx,beryljct,423,05MAR2018:14:30:00,45.6,14.13,39.2,39.5,39.4,40.2,38.7,36,42,29,0.289,14.3,18.6,9.2,12.39,10.7,54,16,14.5,0.00297,0.00381,34.8,34.9,21,706,0,46.7,12.51,0.00,0.00
15min,AgWx,beryljct,423,05MAR2018:14:45:00,45.8,14.13,40.1,40.0,39.5,40.2,38.8,38,43,33,0.351,16.2,19.4,12.4,13.57,10.4,51,16,16.4,0.00284,0.00365,35.3,35.0,21,677,0,46.5,12.51,0.00,0.00
15min,AgWx,beryljct,423,05MAR2018:15:00:00,46.0,14.11,40.4,40.7,40.2,41.1,39.4,38,44,31,0.292,16.3,20.7,11.7,17.93,11.8,51,15,17.9,0.00279,0.00366,36.1,35.0,22,646,0,46.0,12.51,0.00,0.00
15min,AgWx,beryljct,423,05MAR2018:15:15:00,46.3,14.11,39.5,39.7,40.1,40.5,39.5,39,44,30,0.330,17.1,20.0,10.7,15.96,12.4,65,14,17.1,0.00265,0.00352,36.6,34.9,21,612,0,45.0,12.51,0.00,0.00
15min,AgWx,beryljct,423,05MAR2018:15:30:00,46.2,14.14,39.4,39.9,39.8,40.2,39.2,40,44,36,0.321,17.1,19.8,14.9,8.53,12.3,70,15,17.0,0.00251,0.00335,37.0,35.0,22,574,0,44.0,12.51,0.00,0.00
15min,AgWx,beryljct,423,05MAR2018:15:45:00,46.2,14.13,40.1,40.7,40.2,40.9,39.6,37,42,32,0.283,15.8,19.3,12.1,15.08,11.8,68,16,17.6,0.00243,0.00329,37.4,34.9,22,533,0,44.1,12.51,0.00,0.00
15min,AgWx,beryljct,423,05MAR2018:16:00:00,46.2,14.12,40.3,40.8,40.5,41.1,40.2,34,38,31,0.300,14.3,16.9,12.4,10.74,12.2,68,13,17.9,0.00237,0.00329,37.8,35.0,22,492,0,43.7,12.51,0.00,0.00
15min,AgWx,beryljct,423,05MAR2018:16:15:00,46.2,14.12,40.2,40.8,40.7,41.3,40.4,32,36,29,0.256,13.0,15.6,10.7,11.95,13.5,58,16,17.2,0.00230,0.00329,38.1,35.0,22,447,0,43.2,12.51,0.00,0.00
15min,AgWx,beryljct,423,05MAR2018:16:30:00,46.1,14.11,40.7,41.0,41.0,41.4,40.5,32,35,29,0.287,13.3,15.9,11.3,11.75,11.5,67,14,14.5,0.00210,0.00300,38.2,35.0,22,400,0,43.0,12.50,0.00,0.00
15min,AgWx,beryljct,423,05MAR2018:16:45:00,45.9,14.13,40.9,41.0,40.8,41.3,40.5,32,35,28,0.259,13.0,15.4,10.6,13.68,12.1,52,16,17.5,0.00196,0.00288,38.3,35.1,21,352,0,42.4,12.50,0.00,0.00
15min,AgWx,beryljct,423,05MAR2018:17:00:00,45.6,14.12,40.3,40.7,40.7,41.1,40.4,28,32,24,0.228,10.3,13.6,6.8,11.82,13.0,57,14,16.1,0.00188,0.00288,38.4,35.2,22,303,0,41.8,12.50,0.00,0.00
15min,AgWx,beryljct,423,05MAR2018:17:15:00,45.1,14.15,39.9,40.2,40.5,41.1,40.0,29,33,25,0.267,11.0,14.2,7.0,10.43,12.2,57,16,15.9,0.00166,0.00260,38.4,35.2,22,254,0,41.1,12.50,0.00,0.00
15min,AgWx,beryljct,423,05MAR2018:17:30:00,44.5,14.15,39.8,40.0,40.1,40.4,39.7,26,33,21,0.240,8.2,13.6,3.5,12.3,11.5,54,12,16.9,0.00149,0.00240,38.3,35.4,21,205,0,40.2,12.50,0.00,0.00
15min,AgWx,beryljct,423,05MAR2018:17:45:00,43.7,14.15,39.0,39.3,39.5,40.0,39.1,29,35,24,0.279,9.7,14.0,5.9,8.81,10.4,61,15,14.9,0.00058,0.00067,38.2,35.5,22,157,0,39.3,12.50,0.00,0.00
15min,AgWx,beryljct,423,05MAR2018:18:00:00,42.5,13.55,38.0,38.0,38.6,39.1,38.0,36,41,32,0.273,13.7,16.5,11.8,6.642,6.7,68,12,10.4,0.00040,0.00049,38.0,35.5,22,112,0,38.1,12.50,0.00,0.00
15min,AgWx,beryljct,423,05MAR2018:18:15:00,41.2,13.35,36.4,36.5,37.4,38.3,36.2,38,40,34,0.270,13.8,15.2,12.2,5.042,5.5,51,11,8.1,0.00026,0.00034,37.8,35.6,22,49,0,36.3,12.50,0.00,0.00
15min,AgWx,beryljct,423,05MAR2018:18:30:00,39.4,13.13,34.2,34.6,35.3,36.3,34.2,38,41,35,0.272,12.3,13.3,11.2,3.464,4.2,48,11,6.7,0.00014,0.00020,37.6,35.7,21,10,0,35.2,12.50,0.00,0.00
15min,AgWx,beryljct,423,05MAR2018:18:45:00,37.4,13.04,33.3,33.6,33.8,34.7,33.3,43,46,40,0.286,13.9,14.7,12.9,3.025,3.7,39,9.7,4.6,0.00007,0.00012,37.3,35.8,21,3,0,35.3,12.50,0.00,0.00
15min,AgWx,beryljct,423,05MAR2018:19:00:00,35.8,13.01,34.0,34.2,34.5,34.8,33.8,41,43,40,0.270,12.9,13.9,12.5,5.546,4.7,12,9.0,5.9,0.00013,0.00018,37.0,35.9,21,0,0,35.7,12.50,0.00,0.00
15min,AgWx,beryljct,423,05MAR2018:19:15:00,34.6,12.98,33.0,33.3,33.8,34.4,33.0,42,43,40,0.274,12.9,13.5,12.5,6.379,5.5,11,7.2,7.3,0.00015,0.00021,36.7,36.0,22,0,0,35.3,12.50,0.00,0.00
15min,AgWx,beryljct,423,05MAR2018:19:30:00,33.5,12.96,28.8,29.3,32.2,33.6,29.3,48,62,42,0.338,14.6,17.8,12.8,2.718,4.8,359,13,7.1,0.00010,0.00014,36.5,36.1,22,0,0,35.5,12.50,0.00,0.00
15min,AgWx,beryljct,423,05MAR2018:19:45:00,31.8,12.95,28.7,29.1,29.0,29.3,28.5,61,64,58,0.326,17.2,17.9,16.3,3.508,3.0,326,16,4.2,-0.00002,-0.00001,36.4,36.1,22,0,0,35.5,12.50,0.00,0.00
15min,AgWx,beryljct,423,05MAR2018:20:00:00,30.6,12.94,29.8,30.1,30.3,31.1,29.1,53,60,49,0.302,15.2,17.0,14.0,2.148,3.5,6.1,10,5.1,0.00002,0.00005,36.2,36.2,22,0,0,35.5,12.50,0.00,0.00
15min,AgWx,beryljct,423,05MAR2018:20:15:00,29.5,12.92,28.2,28.2,28.6,30.1,27.9,58,60,53,0.310,15.8,16.3,15.1,3.201,2.9,335,18,3.9,-0.00002,-0.00001,36.0,36.3,22,0,0,35.6,12.50,0.00,0.00
15min,AgWx,beryljct,423,05MAR2018:20:30:00,28.5,12.91,28.6,28.9,28.6,28.9,28.1,59,60,58,0.316,16.1,16.5,15.7,3.595,2.9,324,12,4.0,-0.00002,-0.00001,35.7,36.3,22,0,0,35.7,12.51,0.00,0.00
15min,AgWx,beryljct,423,05MAR2018:20:45:00,27.8,12.9,27.8,28.3,28.5,29.0,28.0,60,61,58,0.319,16.4,16.7,16.0,3.069,3.9,331,13,5.0,0.00002,0.00004,35.6,36.3,22,0,0,35.5,12.51,0.00,0.00
15min,AgWx,beryljct,423,05MAR2018:21:00:00,27.2,12.88,28.2,28.2,28.2,28.6,27.8,60,62,59,0.308,16.1,16.7,15.6,4.253,3.6,327,12,5.3,0.00000,0.00002,35.5,36.3,22,0,0,35.5,12.51,0.00,0.00
15min,AgWx,beryljct,423,05MAR2018:21:15:00,26.7,12.88,27.9,28.3,28.3,28.8,27.8,60,63,58,0.314,16.1,16.9,15.5,2.346,3.2,338,18,4.9,-0.00001,0.00000,35.3,32.0,0,0,0,35.7,12.51,0.00,0.00
15min,AgWx,beryljct,423,05MAR2018:21:30:00,26.2,12.88,27.3,27.6,28.2,28.8,27.6,60,62,57,0.315,16.0,16.5,15.4,2.938,2.9,353,12,4.2,-0.00002,-0.00001,35.2,36.4,22,0,0,35.6,12.51,0.00,0.00
15min,AgWx,beryljct,423,05MAR2018:21:45:00,25.8,12.86,27.3,27.5,27.8,28.5,27.0,62,65,59,0.315,16.3,16.8,15.6,4.626,3.7,357,13,6.2,0.00000,0.00002,35.1,36.4,22,0,0,35.5,12.51,0.00,0.00
15min,AgWx,beryljct,423,05MAR2018:22:00:00,25.5,12.72,26.1,26.4,27.1,28.2,26.4,63,64,59,0.313,16.1,16.6,15.5,4.012,3.8,336,20,6.3,0.00000,0.00002,34.9,36.4,22,0,0,35.6,12.51,0.00,0.00
15min,AgWx,beryljct,423,05MAR2018:22:15:00,25.1,12.85,25.7,26.0,26.3,26.5,26.0,66,67,64,0.323,16.4,16.7,15.8,3.157,3.4,317,17,4.3,-0.00002,-0.00001,34.8,36.4,22,0,0,35.6,12.51,0.00,0.00
15min,AgWx,beryljct,423,05MAR2018:22:30:00,24.7,12.84,25.3,25.7,25.9,26.3,25.4,67,70,66,0.327,16.6,17.0,16.2,3.486,4.1,320,14,5.2,-0.00000,0.00001,34.6,36.4,22,0,0,35.5,12.51,0.00,0.00
15min,AgWx,beryljct,423,05MAR2018:22:45:00,24.4,12.84,25.5,25.7,25.7,26.1,25.4,68,69,66,0.318,16.4,17.0,15.9,5.196,4.2,332,18,6.2,-0.00000,0.00001,34.6,36.4,22,0,0,35.5,12.51,0.00,0.00
15min,AgWx,beryljct,423,05MAR2018:23:00:00,24.1,12.82,25.2,25.5,25.5,26.0,25.2,68,69,66,0.321,16.3,16.9,15.9,4.165,5.0,328,20,7.1,0.00002,0.00004,34.4,36.4,22,0,0,35.5,12.51,0.00,0.00
15min,AgWx,beryljct,423,05MAR2018:23:15:00,23.9,12.79,25.1,25.2,25.5,25.8,25.2,67,68,67,0.311,16.2,16.5,15.8,5.634,4.7,328,14,6.5,0.00001,0.00003,34.3,36.4,22,0,0,35.7,12.51,0.00,0.00
15min,AgWx,beryljct,423,05MAR2018:23:30:00,23.7,12.8,24.3,24.5,25.2,25.7,24.4,67,68,65,0.306,15.6,16.0,15.2,4.056,4.0,333,18,6.1,-0.00000,0.00001,34.2,36.4,22,0,0,35.5,12.51,0.00,0.00
15min,AgWx,beryljct,423,05MAR2018:23:45:00,23.4,12.81,24.7,25.0,24.7,25.0,24.4,67,69,66,0.303,15.4,15.7,15.0,2.455,3.3,319,17,5.2,-0.00002,-0.00002,34.1,36.4,22,0,0,35.7,12.51,0.00,0.00
15min,AgWx,bigpiney,439,05MAR2018:00:00:00,10.9,12.81,14.8,13.9,11.6,13.9,9.7,72,74,69,0.197,4.3,5.8,2.6,7.037,4.7,279,13,7.5,0.00002,0.00003,30.2,31.3,12,0,0,0.0,.,0.00,0.00
15min,AgWx,bigpiney,439,05MAR2018:00:15:00,11.4,12.81,16.1,15.3,14.6,15.3,13.8,69,70,68,0.207,6.3,6.7,5.6,10.04,7.2,292,5.7,10.0,0.00006,0.00007,30.2,31.3,12,0,0,0.0,.,0.00,0.00
15min,AgWx,bigpiney,439,05MAR2018:00:30:00,12.4,12.79,16.8,15.9,15.6,15.9,15.3,68,68,67,0.210,6.9,7.1,6.7,12.14,9.6,289,7.7,14.1,0.00007,0.00009,30.1,31.3,12,0,0,0.0,.,0.00,0.00
15min,AgWx,bigpiney,439,05MAR2018:00:45:00,13.3,12.79,15.5,15.3,15.5,16.1,15.1,69,70,67,0.211,7.0,7.2,6.8,8.11,9.1,289,6.0,11.7,0.00007,0.00008,30.1,31.3,12,0,0,0.0,.,0.00,0.00
15min,AgWx,bigpiney,439,05MAR2018:01:00:00,14.0,12.79,13.9,14.0,14.6,15.3,14.0,71,72,70,0.206,6.8,7.2,6.7,6.248,7.4,285,6.1,8.6,0.00005,0.00006,30.0,31.3,12,0,0,0.0,.,0.00,0.00
15min,AgWx,bigpiney,439,05MAR2018:01:15:00,14.2,12.77,15.0,14.4,14.3,14.6,13.8,72,73,72,0.209,6.9,7.2,6.5,8.79,7.9,285,5.6,9.6,0.00005,0.00006,30.0,31.3,12,0,0,0.0,.,0.00,0.00
15min,AgWx,bigpiney,439,05MAR2018:01:30:00,14.3,12.77,14.9,14.3,14.2,14.5,13.9,72,73,71,0.205,6.8,7.0,6.5,8.2,7.9,285,7.0,9.4,0.00005,0.00006,29.9,31.2,12,0,0,0.0,.,0.00,0.00
15min,AgWx,bigpiney,439,05MAR2018:01:45:00,14.3,12.76,13.8,13.5,14.1,14.5,13.5,70,71,69,0.195,6.0,6.5,5.3,7.453,7.4,290,7.2,10.8,0.00005,0.00007,29.9,31.2,12,0,0,0.0,.,0.00,0.00
15min,AgWx,bigpiney,439,05MAR2018:02:00:00,14.1,12.75,13.0,12.3,12.5,13.5,12.0,71,72,69,0.188,4.8,5.4,4.3,6.16,6.5,292,6.8,7.7,0.00004,0.00005,29.9,31.2,12,0,0,0.0,.,0.00,0.00
15min,AgWx,bigpiney,439,05MAR2018:02:15:00,13.5,12.73,14.0,14.0,13.1,14.0,12.3,69,71,67,0.191,4.9,5.3,4.5,4.932,5.8,293,3.3,7.0,0.00004,0.00005,29.8,31.2,12,0,0,0.0,.,0.00,0.00
15min,AgWx,bigpiney,439,05MAR2018:02:30:00,13.0,12.73,11.8,12.0,13.4,15.1,11.7,65,69,59,0.168,3.9,5.0,0.4,4.297,4.9,284,14,8.5,0.00004,0.00006,29.8,31.2,12,0,0,0.0,.,0.00,0.00
15min,AgWx,bigpiney,439,05MAR2018:02:45:00,12.4,12.72,12.9,12.8,12.9,13.5,11.7,65,66,64,0.176,3.2,3.7,2.2,4.56,4.7,298,9.2,7.8,0.00004,0.00005,29.7,31.2,12,0,0,0.0,.,0.00,0.00
15min,AgWx,bigpiney,439,05MAR2018:03:00:00,12.1,12.71,11.8,11.1,11.8,12.8,11.1,67,69,65,0.173,2.8,3.2,2.5,4.889,4.0,297,11,5.5,0.00003,0.00004,29.7,31.2,12,0,0,0.0,.,0.00,0.00
15min,AgWx,bigpiney,439,05MAR2018:03:15:00,11.9,12.7,13.1,12.5,11.8,12.6,10.8,69,70,68,0.187,3.6,4.5,2.8,4.691,4.8,287,8.1,6.6,0.00003,0.00004,29.7,31.2,12,0,0,0.0,.,0.00,0.00
15min,AgWx,bigpiney,439,05MAR2018:03:30:00,12.1,12.7,14.8,14.2,13.7,14.2,12.5,68,70,67,0.193,5.0,5.2,4.4,4.516,5.0,294,8.0,7.0,0.00004,0.00005,29.6,31.2,12,0,0,0.0,.,0.00,0.00
15min,AgWx,bigpiney,439,05MAR2018:03:45:00,12.6,12.68,14.4,13.9,13.2,14.3,12.5,69,70,67,0.190,4.9,5.3,4.5,3.814,3.5,24,36,5.6,0.00001,0.00002,29.6,31.2,12,0,0,0.0,.,0.00,0.00
15min,AgWx,bigpiney,439,05MAR2018:04:00:00,12.8,12.68,12.9,11.9,12.6,13.9,11.9,69,70,66,0.181,4.2,4.8,3.5,5.393,4.4,49,11,5.8,0.00003,0.00004,29.5,31.1,12,0,0,0.0,.,0.00,0.00
15min,AgWx,bigpiney,439,05MAR2018:04:15:00,12.6,12.67,10.4,9.3,11.3,12.9,9.3,70,73,67,0.164,3.2,4.8,1.2,3.99,3.0,42,63,6.5,0.00001,0.00001,29.5,31.2,12,0,0,0.0,.,0.00,0.00
15min,AgWx,bigpiney,439,05MAR2018:04:30:00,11.9,12.66,7.1,8.5,9.1,10.6,7.9,72,74,69,0.163,1.8,3.4,0.1,2.718,3.0,192,10,4.2,0.00000,0.00001,29.4,31.2,12,0,0,0.0,.,0.00,0.00
15min,AgWx,bigpiney,439,05MAR2018:04:45:00,11.0,12.65,12.1,10.5,9.3,11.4,7.2,72,75,69,0.175,2.2,4.4,-0.3,2.302,2.4,215,19,3.8,-0.00001,-0.00001,29.4,31.2,12,0,0,0.0,.,0.00,0.00
15min,AgWx,bigpiney,439,05MAR2018:05:00:00,10.8,12.64,15.8,15.1,12.7,15.1,10.2,70,72,68,0.205,4.8,6.6,2.3,6.248,4.3,287,26,7.9,0.00002,0.00003,29.4,31.1,12,0,0,0.0,.,0.00,0.00
15min,AgWx,bigpiney,439,05MAR2018:05:15:00,11.5,12.64,15.0,14.8,15.5,16.0,14.8,66,68,65,0.195,6.2,6.6,5.4,4.998,6.8,321,11,9.9,0.00006,0.00008,29.3,31.1,12,0,0,0.0,.,0.00,0.00
15min,AgWx,bigpiney,439,05MAR2018:05:30:00,12.2,12.63,13.5,13.3,14.1,15.3,13.1,66,71,61,0.178,4.8,5.6,3.3,5.042,4.4,334,13,7.5,0.00003,0.00005,29.3,31.1,12,0,0,0.0,.,0.00,0.00
15min,AgWx,bigpiney,439,05MAR2018:05:45:00,12.4,12.63,16.6,15.0,13.9,15.0,12.7,64,67,61,0.184,3.8,4.2,3.2,3.595,3.6,342,10,6.3,0.00003,0.00004,29.2,31.0,12,0,0,0.0,.,0.00,0.00
15min,AgWx,bigpiney,439,05MAR2018:06:00:00,12.0,12.63,13.1,10.2,9.8,15.2,8.0,69,74,59,0.170,1.5,4.2,-1.4,5.919,3.0,242,27,5.9,0.00001,0.00001,29.2,31.0,12,0,0,0.0,.,0.00,0.00
15min,AgWx,bigpiney,439,05MAR2018:06:15:00,11.3,12.62,14.3,13.6,11.7,13.6,9.7,67,71,63,0.178,2.9,4.0,1.4,0,2.2,247,20,6.1,-0.00001,-0.00000,29.2,31.0,11,0,0,0.0,.,0.00,0.00
15min,AgWx,bigpiney,439,05MAR2018:06:30:00,10.6,12.62,13.9,13.4,13.4,14.1,12.9,63,63,61,0.175,3.1,3.7,2.3,0,0.5,241,56,1.6,-0.00006,-0.00009,29.1,31.0,11,0,0,0.0,.,0.00,0.00
15min,AgWx,bigpiney,439,05MAR2018:06:45:00,10.0,12.62,12.2,10.5,12.0,13.5,9.7,64,68,59,0.162,2.1,3.6,-1.8,2.959,1.3,180,32,5.3,-0.00003,-0.00003,29.1,31.0,11,2,0,0.0,.,0.00,0.00
15min,AgWx,bigpiney,439,05MAR2018:07:00:00,9.2,12.74,8.8,9.0,8.4,11.1,5.6,69,73,63,0.157,0.3,2.4,-3.3,0,1.3,199,64,4.8,-0.00001,-0.00001,29.0,31.0,11,14,0,0.0,.,0.00,0.00
15min,AgWx,bigpiney,439,05MAR2018:07:15:00,8.7,13.2,12.6,10.0,9.6,11.0,7.4,69,72,66,0.158,1.3,2.4,-1.2,0.197,1.4,120,44,3.6,-0.00007,-0.00005,29.0,30.9,11,51,0,0.0,.,0.00,0.00
15min,AgWx,bigpiney,439,05MAR2018:07:30:00,9.0,14.98,12.9,13.0,12.1,14.2,9.8,65,69,61,0.173,2.6,3.5,1.1,0.329,1.4,141,66,4.4,0.00003,0.00006,28.9,30.9,11,91,0,0.0,.,0.00,0.00
15min,AgWx,bigpiney,439,05MAR2018:07:45:00,10.2,15.05,12.3,11.5,10.7,12.8,9.1,69,71,64,0.180,2.5,3.9,0.5,1.03,1.8,130,78,4.3,0.00014,0.00018,28.9,30.9,11,134,0,0.0,.,0.00,0.00
15min,AgWx,bigpiney,439,05MAR2018:08:00:00,11.2,15,18.2,17.5,14.6,17.5,11.3,65,71,60,0.199,4.9,6.3,3.4,11.38,4.0,319,56,11.4,0.00032,0.00042,28.8,30.9,11,178,0,0.0,.,0.00,0.00